Location: Bryzozowice
(50.3667°N, 18.9667°E)
Time: 16:48:14
(UTC+00:00)

CZ-2D R/B - Pass Details

Date: 24 January 2020
Orbit: 522 x 538 km, 97.4° (Epoch: 25 February)

Event Time Altitude Azimuth Distance (km) Brightness Sun altitude
Rises 17:12:34 0° 163° (SSE) 2,655 6.7 -17.2°
Reaches altitude 10° 17:14:40 10° 162° (SSE) 1,773 5.8 -17.6°
Maximum altitude 17:18:29 83° 76° (ENE) 543 3.1 -18.2°
Drops below altitude 10° 17:22:23 10° 348° (NNW) 1,798 6.0 -18.8°
Sets 17:24:30 0° 348° (NNW) 2,696 6.9 -19.1°
